sat.trackr.live / text

‹ back to catalog

STARLINK-1993

NORAD 47588 · 2021-009AS

PAYLOAD ACTIVE UNKNOWN

§ Identity

Operator
Country
US
Launch date
2021-02-04
Launch site
AFETR
Launch vehicle
Mass (kg)
RCS (m²)

Purposes: comms

External: N2YO · Heavens-Above · Gunter

§ Orbital elements

Epoch: 2026-05-24T23:04:11.866080Z

Period
89.91 min
Inclination
53.0311°
Eccentricity
0.0008892
Mean motion
16.01571889 rev/d
Perigee alt
264.2 km
Apogee alt
276.0 km
Semi-major
6,648.2 km
B*
9.6875e-4
RAAN
315.6303°
Arg perigee
266.6005°
Mean anomaly
93.4007°
Rev number
29,346

§ Raw data

STARLINK-19931 47588U 21009AS  26144.96124845  .00556443  15041-3  96875-3 0  99992 47588  53.0311 315.6303 0008892 266.6005  93.4007 16.01571889293463

JSON: /api/v1/satellites/47588 · /tle

For live sub-satellite position, see the globe view (requires WebGL).

§ Visibility from observer

Set your observer location to see the next 7 days of passes ≥ 10°. The values pass through the URL so the page stays shareable.

No JS? Fill the form by hand. The geolocation button needs JavaScript.